SIA7433 KCVG-KLAX

Flight info

Callsign SIA7433
Flight time 4h 19m
Altitude 24000
Route CHCLL6 BUSYY PXV J78 DRK J231 TNP SEAVU2
Aircraft B77L/H-SDE1E2E3FGHIJ4J5M1P2RWXYZ/LB1D1

Departure

Time 2026-04-25 06:25
Airport Cincinnati Northern Kentucky International Airport (KCVG)

Arrival

Time 2026-04-25 10:45
Airport Los Angeles International Airport (KLAX)
Time Latitude Longitude Altitude Speed Heading
2026-04-25 06:07 39.02760 -84.65096 888 ft 0 kts 268°
2026-04-25 06:17 39.02761 -84.65077 887 ft 2 kts 268°
2026-04-25 06:17 39.02761 -84.65056 886 ft 2 kts 268°
2026-04-25 06:18 39.02761 -84.65035 886 ft 2 kts 284°
2026-04-25 06:18 39.02755 -84.65015 885 ft 2 kts 299°
2026-04-25 06:18 39.02746 -84.64999 885 ft 2 kts 336°
2026-04-25 06:18 39.02731 -84.64996 885 ft 0 kts
2026-04-25 06:20 39.02737 -84.64996 885 ft 6 kts
2026-04-25 06:20 39.02808 -84.64996 883 ft 11 kts 359°
2026-04-25 06:20 39.02895 -84.64996 884 ft 16 kts 360°
2026-04-25 06:21 39.03046 -84.64996 889 ft 26 kts
2026-04-25 06:21 39.03228 -84.64995 888 ft 26 kts
2026-04-25 06:21 39.03409 -84.64994 890 ft 26 kts 360°
2026-04-25 06:21 39.03595 -84.64994 886 ft 28 kts
2026-04-25 06:22 39.03793 -84.64992 884 ft 28 kts
2026-04-25 06:22 39.03991 -84.64992 879 ft 27 kts
2026-04-25 06:22 39.04180 -84.64991 881 ft 27 kts
2026-04-25 06:22 39.04368 -84.64989 880 ft 27 kts
2026-04-25 06:23 39.04453 -84.65000 881 ft 4 kts 308°
2026-04-25 06:23 39.04459 -84.65040 880 ft 7 kts 278°
2026-04-25 06:23 39.04464 -84.65109 879 ft 8 kts 274°
2026-04-25 06:23 39.04463 -84.65188 878 ft 10 kts 269°
2026-04-25 06:24 39.04470 -84.65281 877 ft 10 kts 303°
2026-04-25 06:24 39.04531 -84.65299 876 ft 9 kts 360°
2026-04-25 06:24 39.04592 -84.65299 876 ft 8 kts 360°
2026-04-25 06:24 39.04623 -84.65328 876 ft 4 kts 291°
2026-04-25 06:25 39.04626 -84.65346 876 ft 3 kts 283°
2026-04-25 06:25 39.04629 -84.65533 875 ft 59 kts 270°
2026-04-25 06:25 39.04632 -84.66535 883 ft 162 kts 270°
2026-04-25 06:25 39.04637 -84.68199 1610 ft 192 kts 271°
2026-04-25 06:26 39.04630 -84.69881 2714 ft 186 kts 274°
2026-04-25 06:26 39.04627 -84.71522 3377 ft 190 kts 273°
2026-04-25 06:26 39.04629 -84.73337 3625 ft 216 kts 272°
2026-04-25 06:26 39.04628 -84.75391 3907 ft 244 kts 272°
2026-04-25 06:27 39.04624 -84.77640 4567 ft 256 kts 271°
2026-04-25 06:27 39.04618 -84.79959 5403 ft 261 kts 270°
2026-04-25 06:27 39.04613 -84.81511 6038 ft 262 kts 270°
2026-04-25 06:27 39.04603 -84.84661 7210 ft 266 kts 270°
2026-04-25 06:28 39.04594 -84.86245 7741 ft 267 kts 268°
2026-04-25 06:28 39.03763 -84.89261 8646 ft 279 kts 231°
2026-04-25 06:28 39.02804 -84.90367 9198 ft 282 kts 213°
2026-04-25 06:28 39.00957 -84.91243 10027 ft 289 kts 188°
2026-04-25 06:29 38.98921 -84.90983 10592 ft 308 kts 162°
2026-04-25 06:29 38.97016 -84.89492 10782 ft 334 kts 143°
2026-04-25 06:29 38.95045 -84.87739 10960 ft 357 kts 153°
2026-04-25 06:29 38.92695 -84.86519 11287 ft 374 kts 169°
2026-04-25 06:30 38.90097 -84.86284 12001 ft 377 kts 190°
2026-04-25 06:30 38.87541 -84.86937 12768 ft 378 kts 193°
2026-04-25 06:30 38.84916 -84.87417 13602 ft 386 kts 188°
2026-04-25 06:30 38.82219 -84.87662 14483 ft 389 kts 186°
2026-04-25 06:31 38.79519 -84.87875 15372 ft 389 kts 189°
2026-04-25 06:31 38.76847 -84.88501 16143 ft 391 kts 196°
2026-04-25 06:31 38.74216 -84.89383 16971 ft 393 kts 198°
2026-04-25 06:31 38.71560 -84.90329 17776 ft 397 kts 198°
2026-04-25 06:32 38.68885 -84.91259 18502 ft 401 kts 197°
2026-04-25 06:32 38.66162 -84.92166 19164 ft 406 kts 197°
2026-04-25 06:32 38.63415 -84.93048 19838 ft 410 kts 196°
2026-04-25 06:32 38.60623 -84.93927 20478 ft 414 kts 196°
2026-04-25 06:33 38.57816 -84.94803 21132 ft 418 kts 196°
2026-04-25 06:33 38.54969 -84.95690 21766 ft 422 kts 196°
2026-04-25 06:33 38.52104 -84.96584 22350 ft 427 kts 196°
2026-04-25 06:33 38.49220 -84.97569 22896 ft 428 kts 202°
2026-04-25 06:34 38.46598 -84.99362 23339 ft 432 kts 219°
2026-04-25 06:34 38.44511 -85.01777 23811 ft 431 kts 224°
2026-04-25 06:34 38.42327 -85.04414 24320 ft 435 kts 224°
2026-04-25 06:34 38.40115 -85.07044 24942 ft 436 kts 224°
2026-04-25 06:35 38.37879 -85.09670 25563 ft 437 kts 223°
2026-04-25 06:35 38.35636 -85.12285 26122 ft 439 kts 223°
2026-04-25 06:35 38.33365 -85.14921 26647 ft 442 kts 223°
2026-04-25 06:35 38.31085 -85.17562 27152 ft 445 kts 223°
2026-04-25 06:36 38.28782 -85.20227 27667 ft 448 kts 223°
2026-04-25 06:36 38.26472 -85.22897 28175 ft 450 kts 223°
2026-04-25 06:36 38.24141 -85.25592 28683 ft 453 kts 223°
2026-04-25 06:36 38.21804 -85.28292 29152 ft 455 kts 223°
2026-04-25 06:37 38.19458 -85.30999 29603 ft 458 kts 223°
2026-04-25 06:37 38.17092 -85.33728 30057 ft 459 kts 223°
2026-04-25 06:37 38.14740 -85.36437 30596 ft 455 kts 223°
2026-04-25 06:37 38.12412 -85.39116 31271 ft 449 kts 224°
2026-04-25 06:38 38.10362 -85.42052 31778 ft 443 kts 237°
2026-04-25 06:38 38.08965 -85.45519 32217 ft 443 kts 248°
2026-04-25 06:38 38.08141 -85.49242 32678 ft 445 kts 259°
2026-04-25 06:38 38.07871 -85.53185 33136 ft 443 kts 263°
2026-04-25 06:39 38.07680 -85.57037 33612 ft 441 kts 263°
2026-04-25 06:39 38.07494 -85.60904 34096 ft 438 kts 263°
2026-04-25 06:39 38.07301 -85.64760 34514 ft 436 kts 263°
2026-04-25 06:39 38.07096 -85.68584 34883 ft 434 kts 263°
2026-04-25 06:40 38.06879 -85.72410 35227 ft 433 kts 262°
2026-04-25 06:40 38.06655 -85.76208 35575 ft 432 kts 262°
2026-04-25 06:40 38.06426 -85.80010 35919 ft 431 kts 262°
2026-04-25 06:41 38.05956 -85.87646 35900 ft 435 kts 262°
2026-04-25 06:41 38.05482 -85.95282 35888 ft 429 kts 262°
2026-04-25 06:42 38.05024 -86.02587 35899 ft 428 kts 262°
2026-04-25 06:42 38.04548 -86.10102 35897 ft 427 kts 262°
2026-04-25 06:43 38.04067 -86.17611 35907 ft 427 kts 262°
2026-04-25 06:43 38.03582 -86.25136 35901 ft 429 kts 262°
2026-04-25 06:44 38.03092 -86.32628 35891 ft 430 kts 262°
2026-04-25 06:44 38.02594 -86.40190 35895 ft 431 kts 262°
2026-04-25 06:45 38.02091 -86.47767 35894 ft 432 kts 262°
2026-04-25 06:45 38.01580 -86.55363 35890 ft 432 kts 262°
2026-04-25 06:46 38.01064 -86.62969 35896 ft 433 kts 262°
2026-04-25 06:46 38.00543 -86.70587 35900 ft 434 kts 262°
2026-04-25 06:47 38.00016 -86.78207 35897 ft 434 kts 262°
2026-04-25 06:47 37.99486 -86.85808 35921 ft 434 kts 262°
2026-04-25 06:48 37.98950 -86.93428 35915 ft 434 kts 262°
2026-04-25 06:48 37.98426 -87.00805 35913 ft 434 kts 261°
2026-04-25 06:49 37.97880 -87.08417 35908 ft 433 kts 261°
2026-04-25 06:49 37.97331 -87.16003 35910 ft 433 kts 261°
2026-04-25 06:50 37.96776 -87.23598 35906 ft 432 kts 261°
2026-04-25 06:50 37.96217 -87.31183 35910 ft 432 kts 261°
2026-04-25 06:51 37.95654 -87.38768 35918 ft 432 kts 261°
2026-04-25 06:51 37.95089 -87.46300 35913 ft 432 kts 261°
2026-04-25 06:52 37.94516 -87.53878 35913 ft 432 kts 261°
2026-04-25 06:52 37.93938 -87.61450 35908 ft 432 kts 261°
2026-04-25 06:53 37.93357 -87.69017 35914 ft 432 kts 260°
2026-04-25 06:53 37.92770 -87.76583 35920 ft 431 kts 260°
2026-04-25 06:54 37.92091 -87.84131 35918 ft 431 kts 259°
2026-04-25 06:54 37.91363 -87.91665 35905 ft 431 kts 259°
2026-04-25 06:55 37.90637 -87.99202 35908 ft 431 kts 259°
2026-04-25 06:55 37.89938 -88.06497 35907 ft 431 kts 259°
2026-04-25 06:56 37.89215 -88.14040 35906 ft 432 kts 259°
2026-04-25 06:56 37.88486 -88.21589 35908 ft 432 kts 259°
2026-04-25 06:57 37.87751 -88.29137 35915 ft 432 kts 259°
2026-04-25 06:57 37.87012 -88.36688 35923 ft 432 kts 259°
2026-04-25 06:58 37.86268 -88.44234 35924 ft 432 kts 259°
2026-04-25 06:58 37.85518 -88.51782 35931 ft 432 kts 259°
2026-04-25 06:59 37.84764 -88.59334 35926 ft 433 kts 259°
2026-04-25 06:59 37.84004 -88.66888 35928 ft 433 kts 258°
2026-04-25 07:00 37.83239 -88.74447 35915 ft 433 kts 258°
2026-04-25 07:00 37.82469 -88.82003 35917 ft 433 kts 258°
2026-04-25 07:01 37.81695 -88.89562 35931 ft 434 kts 258°
2026-04-25 07:01 37.80914 -88.97129 35935 ft 434 kts 258°
2026-04-25 07:02 37.80158 -89.04468 35923 ft 434 kts 258°
2026-04-25 07:02 37.79377 -89.12038 35912 ft 434 kts 258°
2026-04-25 07:03 37.78590 -89.19608 35916 ft 434 kts 258°
2026-04-25 07:03 37.77800 -89.27174 35924 ft 434 kts 258°
2026-04-25 07:04 37.77005 -89.34722 35915 ft 434 kts 258°
2026-04-25 07:04 37.76204 -89.42286 35915 ft 434 kts 258°
2026-04-25 07:05 37.75398 -89.49845 35913 ft 434 kts 258°
2026-04-25 07:05 37.74588 -89.57401 35912 ft 434 kts 258°
2026-04-25 07:06 37.73774 -89.64950 35920 ft 434 kts 258°
2026-04-25 07:06 37.72960 -89.72446 35922 ft 433 kts 258°
2026-04-25 07:07 37.72136 -89.79988 35926 ft 433 kts 258°
2026-04-25 07:07 37.71308 -89.87528 35907 ft 433 kts 258°
2026-04-25 07:08 37.70475 -89.95062 35919 ft 433 kts 258°
2026-04-25 07:08 37.69663 -90.02367 35944 ft 434 kts 258°
2026-04-25 07:09 37.68820 -90.09912 35935 ft 434 kts 258°
2026-04-25 07:09 37.67972 -90.17454 35940 ft 434 kts 258°
2026-04-25 07:10 37.66956 -90.24944 35949 ft 431 kts 252°
2026-04-25 07:10 37.65244 -90.32169 35944 ft 430 kts 250°
2026-04-25 07:11 37.63494 -90.39381 35961 ft 430 kts 250°
2026-04-25 07:11 37.61752 -90.46598 35951 ft 430 kts 251°
2026-04-25 07:12 37.60297 -90.52642 35939 ft 431 kts 251°
2026-04-25 07:12 37.57396 -90.64668 35938 ft 431 kts 251°
2026-04-25 07:13 37.55645 -90.71902 35943 ft 431 kts 251°
2026-04-25 07:13 37.54185 -90.77910 35951 ft 432 kts 251°
2026-04-25 07:14 37.52423 -90.85146 35937 ft 432 kts 251°
2026-04-25 07:14 37.50655 -90.92385 35921 ft 432 kts 251°
2026-04-25 07:15 37.48885 -90.99609 35923 ft 433 kts 251°
2026-04-25 07:15 37.47162 -91.06621 35921 ft 433 kts 251°
2026-04-25 07:16 37.45381 -91.13848 35912 ft 432 kts 251°
2026-04-25 07:16 37.43594 -91.21077 35917 ft 433 kts 252°
2026-04-25 07:17 37.41799 -91.28315 35907 ft 434 kts 252°
2026-04-25 07:17 37.39998 -91.35562 35906 ft 434 kts 252°
2026-04-25 07:18 37.38190 -91.42815 35902 ft 435 kts 252°
2026-04-25 07:18 37.36375 -91.50071 35903 ft 435 kts 251°
2026-04-25 07:19 37.34554 -91.57329 35906 ft 435 kts 252°
2026-04-25 07:19 37.32729 -91.64587 35899 ft 436 kts 252°
2026-04-25 07:20 37.30899 -91.71841 35901 ft 435 kts 252°
2026-04-25 07:20 37.29077 -91.79041 35899 ft 435 kts 252°
2026-04-25 07:21 37.27240 -91.86282 35904 ft 435 kts 252°
2026-04-25 07:21 37.25399 -91.93515 35906 ft 435 kts 253°
2026-04-25 07:22 37.23609 -92.00527 35898 ft 435 kts 253°
2026-04-25 07:22 37.21758 -92.07760 35898 ft 435 kts 253°
2026-04-25 07:23 37.19904 -92.14985 35895 ft 435 kts 252°
2026-04-25 07:23 37.18049 -92.22194 35903 ft 435 kts 252°
2026-04-25 07:24 37.16184 -92.29418 35904 ft 436 kts 253°
2026-04-25 07:24 37.14313 -92.36647 35902 ft 436 kts 253°
2026-04-25 07:25 37.12436 -92.43878 35897 ft 436 kts 253°
2026-04-25 07:25 37.10555 -92.51105 35902 ft 436 kts 253°
2026-04-25 07:26 37.08669 -92.58329 35899 ft 436 kts 253°
2026-04-25 07:26 37.06779 -92.65547 35901 ft 436 kts 253°
2026-04-25 07:27 37.04884 -92.72762 35906 ft 436 kts 253°
2026-04-25 07:27 37.02988 -92.79967 35900 ft 436 kts 253°
2026-04-25 07:28 37.01102 -92.87111 35902 ft 435 kts 253°
2026-04-25 07:28 36.99206 -92.94272 35903 ft 434 kts 253°
2026-04-25 07:29 36.97361 -93.01222 35903 ft 434 kts 253°
2026-04-25 07:29 36.95456 -93.08380 35905 ft 433 kts 253°
2026-04-25 07:30 36.93551 -93.15516 35894 ft 432 kts 253°
2026-04-25 07:30 36.91647 -93.22631 35902 ft 431 kts 253°
2026-04-25 07:31 36.89742 -93.29730 35897 ft 431 kts 253°
2026-04-25 07:31 36.87838 -93.36804 35899 ft 430 kts 253°
2026-04-25 07:32 36.85927 -93.43889 35902 ft 430 kts 253°
2026-04-25 07:32 36.84010 -93.50972 35897 ft 430 kts 253°
2026-04-25 07:33 36.82090 -93.58051 35901 ft 431 kts 253°
2026-04-25 07:33 36.80165 -93.65126 35905 ft 431 kts 253°
2026-04-25 07:34 36.78236 -93.72201 35900 ft 431 kts 253°
2026-04-25 07:34 36.76300 -93.79279 35906 ft 431 kts 253°
2026-04-25 07:35 36.74361 -93.86351 35907 ft 431 kts 253°
2026-04-25 07:35 36.72420 -93.93409 35908 ft 430 kts 253°
2026-04-25 07:36 36.70522 -94.00296 35907 ft 429 kts 253°
2026-04-25 07:36 36.68600 -94.07251 35908 ft 429 kts 253°
2026-04-25 07:37 36.66654 -94.14272 35899 ft 428 kts 253°
2026-04-25 07:37 36.64714 -94.21254 35900 ft 427 kts 253°
2026-04-25 07:38 36.62771 -94.28229 35903 ft 426 kts 253°
2026-04-25 07:38 36.60829 -94.35184 35904 ft 425 kts 253°
2026-04-25 07:39 36.58886 -94.42123 35902 ft 424 kts 253°
2026-04-25 07:39 36.56942 -94.49051 35894 ft 424 kts 253°
2026-04-25 07:40 36.54993 -94.55974 35899 ft 424 kts 253°
2026-04-25 07:40 36.53041 -94.62895 35898 ft 424 kts 253°
2026-04-25 07:41 36.51083 -94.69815 35893 ft 424 kts 253°
2026-04-25 07:41 36.49136 -94.76683 35891 ft 424 kts 253°
2026-04-25 07:42 36.47171 -94.83592 35892 ft 424 kts 253°
2026-04-25 07:42 36.45193 -94.90535 35886 ft 424 kts 253°
2026-04-25 07:43 36.43219 -94.97441 35881 ft 424 kts 253°
2026-04-25 07:43 36.41304 -95.04128 35886 ft 424 kts 253°
2026-04-25 07:44 36.39338 -95.10974 35882 ft 424 kts 253°
2026-04-25 07:44 36.37356 -95.17856 35877 ft 423 kts 253°
2026-04-25 07:45 36.35373 -95.24729 35881 ft 423 kts 253°
2026-04-25 07:45 36.33387 -95.31594 35881 ft 423 kts 253°
2026-04-25 07:46 36.31397 -95.38454 35878 ft 423 kts 253°
2026-04-25 07:46 36.29405 -95.45308 35887 ft 422 kts 253°
2026-04-25 07:47 36.27409 -95.52155 35883 ft 422 kts 253°
2026-04-25 07:47 36.25409 -95.59002 35884 ft 422 kts 253°
2026-04-25 07:48 36.23406 -95.65843 35881 ft 422 kts 253°
2026-04-25 07:48 36.21404 -95.72668 35890 ft 422 kts 253°
2026-04-25 07:49 36.19275 -95.79443 35896 ft 424 kts 249°
2026-04-25 07:49 36.16457 -95.85884 35891 ft 426 kts 245°
2026-04-25 07:50 36.13561 -95.92278 35889 ft 425 kts 245°
2026-04-25 07:50 36.10679 -95.98666 35885 ft 425 kts 245°
2026-04-25 07:51 36.07889 -96.04855 35872 ft 424 kts 245°
2026-04-25 07:51 36.05014 -96.11226 35874 ft 424 kts 245°
2026-04-25 07:52 36.02137 -96.17594 35879 ft 424 kts 245°
2026-04-25 07:52 35.99270 -96.23924 35873 ft 424 kts 245°
2026-04-25 07:53 35.96386 -96.30279 35871 ft 424 kts 245°
2026-04-25 07:53 35.93497 -96.36633 35864 ft 424 kts 245°
2026-04-25 07:54 35.90606 -96.42979 35860 ft 424 kts 245°
2026-04-25 07:54 35.87718 -96.49307 35863 ft 424 kts 245°
2026-04-25 07:55 35.84821 -96.55643 35857 ft 424 kts 245°
2026-04-25 07:55 35.81922 -96.61971 35860 ft 424 kts 245°
2026-04-25 07:56 35.79020 -96.68294 35859 ft 424 kts 245°
2026-04-25 07:56 35.76118 -96.74606 35861 ft 423 kts 245°
2026-04-25 07:57 35.73232 -96.80870 35861 ft 423 kts 245°
2026-04-25 07:57 35.70322 -96.87176 35855 ft 423 kts 245°
2026-04-25 07:58 35.67413 -96.93467 35862 ft 423 kts 245°
2026-04-25 07:58 35.64500 -96.99756 35854 ft 423 kts 245°
2026-04-25 07:59 35.61673 -97.05847 35848 ft 423 kts 245°
2026-04-25 07:59 35.59245 -97.11070 35843 ft 423 kts 245°
2026-04-25 08:00 35.56322 -97.17349 35836 ft 423 kts 245°
2026-04-25 08:00 35.53396 -97.23623 35808 ft 423 kts 245°
2026-04-25 08:01 35.50471 -97.29882 35839 ft 424 kts 245°
2026-04-25 08:01 35.47535 -97.36153 35844 ft 424 kts 245°
2026-04-25 08:02 35.44593 -97.42427 35839 ft 425 kts 245°
2026-04-25 08:02 35.41644 -97.48706 35840 ft 425 kts 245°
2026-04-25 08:03 35.38690 -97.54985 35835 ft 425 kts 246°
2026-04-25 08:03 35.36613 -97.61650 35839 ft 417 kts 259°
2026-04-25 08:04 35.35701 -97.68612 35829 ft 413 kts 269°
2026-04-25 08:04 35.35607 -97.75643 35829 ft 413 kts 270°
2026-04-25 08:05 35.35544 -97.82680 35827 ft 413 kts 270°
2026-04-25 08:05 35.35453 -97.89721 35828 ft 413 kts 270°
2026-04-25 08:06 35.35342 -97.96764 35842 ft 414 kts 270°
2026-04-25 08:06 35.35226 -98.03545 35839 ft 413 kts 270°
2026-04-25 08:07 35.35100 -98.10625 35836 ft 413 kts 270°
2026-04-25 08:07 35.34972 -98.17633 35833 ft 412 kts 270°
2026-04-25 08:08 35.34841 -98.24599 35826 ft 412 kts 270°
2026-04-25 08:08 35.34705 -98.31605 35817 ft 411 kts 270°
2026-04-25 08:09 35.34566 -98.38605 35793 ft 411 kts 269°
2026-04-25 08:09 35.34422 -98.45598 35814 ft 410 kts 269°
2026-04-25 08:10 35.34274 -98.52588 35820 ft 411 kts 269°
2026-04-25 08:10 35.34123 -98.59578 35815 ft 410 kts 269°
2026-04-25 08:11 35.33967 -98.66569 35826 ft 411 kts 269°
2026-04-25 08:11 35.33808 -98.73560 35816 ft 411 kts 269°
2026-04-25 08:12 35.33645 -98.80555 35810 ft 411 kts 269°
2026-04-25 08:12 35.33477 -98.87558 35818 ft 412 kts 269°
2026-04-25 08:13 35.33307 -98.94566 35820 ft 412 kts 269°
2026-04-25 08:14 35.33053 -99.04869 35827 ft 412 kts 269°
2026-04-25 08:14 35.32875 -99.11885 35840 ft 412 kts 269°
2026-04-25 08:15 35.32692 -99.18906 35846 ft 413 kts 269°
2026-04-25 08:15 35.32506 -99.25931 35843 ft 413 kts 269°
2026-04-25 08:16 35.32315 -99.32961 35841 ft 413 kts 269°
2026-04-25 08:16 35.32120 -99.39997 35821 ft 413 kts 269°
2026-04-25 08:17 35.31921 -99.47031 35807 ft 413 kts 269°
2026-04-25 08:17 35.31718 -99.54067 35808 ft 413 kts 269°
2026-04-25 08:18 35.31511 -99.61098 35802 ft 413 kts 269°
2026-04-25 08:18 35.31299 -99.68131 35795 ft 413 kts 269°
2026-04-25 08:19 35.31084 -99.75163 35785 ft 413 kts 269°
2026-04-25 08:19 35.30865 -99.82194 35769 ft 413 kts 268°
2026-04-25 08:20 35.30641 -99.89221 35773 ft 413 kts 268°
2026-04-25 08:20 35.30414 -99.96229 35776 ft 413 kts 268°
2026-04-25 08:21 35.30190 -100.03040 35770 ft 413 kts 268°
2026-04-25 08:21 35.29955 -100.10068 35774 ft 413 kts 268°
2026-04-25 08:22 35.29715 -100.17094 35771 ft 413 kts 268°
2026-04-25 08:22 35.29472 -100.24123 35766 ft 413 kts 268°
2026-04-25 08:23 35.29224 -100.31148 35771 ft 413 kts 268°
2026-04-25 08:23 35.28973 -100.38172 35770 ft 413 kts 268°
2026-04-25 08:24 35.28717 -100.45194 35767 ft 413 kts 268°
2026-04-25 08:24 35.28457 -100.52219 35765 ft 413 kts 268°
2026-04-25 08:25 35.28193 -100.59244 35762 ft 413 kts 268°
2026-04-25 08:25 35.27925 -100.66262 35767 ft 413 kts 268°
2026-04-25 08:26 35.27656 -100.73236 35788 ft 413 kts 268°
2026-04-25 08:26 35.27380 -100.80264 35763 ft 413 kts 268°
2026-04-25 08:27 35.27099 -100.87287 35755 ft 413 kts 268°
2026-04-25 08:27 35.26815 -100.94309 35755 ft 413 kts 268°
2026-04-25 08:28 35.26536 -101.01112 35758 ft 413 kts 268°
2026-04-25 08:28 35.26244 -101.08124 35748 ft 412 kts 268°
2026-04-25 08:29 35.25949 -101.15116 35748 ft 412 kts 268°
2026-04-25 08:29 35.25650 -101.22122 35748 ft 412 kts 267°
2026-04-25 08:30 35.25346 -101.29129 35755 ft 412 kts 267°
2026-04-25 08:30 35.25038 -101.36133 35784 ft 412 kts 267°
2026-04-25 08:31 35.24727 -101.43133 35800 ft 412 kts 267°
2026-04-25 08:31 35.24411 -101.50139 35816 ft 412 kts 267°
2026-04-25 08:32 35.24092 -101.57133 35846 ft 412 kts 267°
2026-04-25 08:32 35.23772 -101.64079 35851 ft 412 kts 267°
2026-04-25 08:33 35.23451 -101.71068 35856 ft 411 kts 268°
2026-04-25 08:33 35.23279 -101.78087 35843 ft 411 kts 269°
2026-04-25 08:34 35.23161 -101.85068 35835 ft 410 kts 269°
2026-04-25 08:34 35.23029 -101.91993 35807 ft 410 kts 269°
2026-04-25 08:35 35.22880 -101.98958 35780 ft 409 kts 269°
2026-04-25 08:35 35.22727 -102.05707 35769 ft 409 kts 269°
2026-04-25 08:36 35.22564 -102.12703 35717 ft 408 kts 269°
2026-04-25 08:36 35.22398 -102.19631 35712 ft 407 kts 269°
2026-04-25 08:37 35.22230 -102.26499 35724 ft 406 kts 269°
2026-04-25 08:37 35.22058 -102.33400 35715 ft 406 kts 269°
2026-04-25 08:38 35.21881 -102.40293 35723 ft 405 kts 269°
2026-04-25 08:38 35.21701 -102.47181 35710 ft 405 kts 269°
2026-04-25 08:39 35.21518 -102.54061 35714 ft 404 kts 269°
2026-04-25 08:39 35.21330 -102.60931 35714 ft 404 kts 269°
2026-04-25 08:40 35.21139 -102.67794 35721 ft 404 kts 269°
2026-04-25 08:40 35.20944 -102.74655 35720 ft 404 kts 269°
2026-04-25 08:41 35.20745 -102.81516 35721 ft 404 kts 268°
2026-04-25 08:41 35.20543 -102.88374 35722 ft 404 kts 268°
2026-04-25 08:42 35.20336 -102.95238 35708 ft 404 kts 268°
2026-04-25 08:42 35.20132 -103.01878 35708 ft 404 kts 268°
2026-04-25 08:43 35.19918 -103.08740 35689 ft 404 kts 268°
2026-04-25 08:43 35.19700 -103.15601 35680 ft 404 kts 268°
2026-04-25 08:44 35.19478 -103.22457 35718 ft 404 kts 268°
2026-04-25 08:44 35.19291 -103.28158 35724 ft 404 kts 268°
2026-04-25 08:45 35.19062 -103.35016 35745 ft 404 kts 268°
2026-04-25 08:45 35.18829 -103.41878 35784 ft 404 kts 268°
2026-04-25 08:46 35.18593 -103.48745 35795 ft 404 kts 268°
2026-04-25 08:46 35.18353 -103.55609 35802 ft 404 kts 268°
2026-04-25 08:47 35.18114 -103.62478 35809 ft 404 kts 268°
2026-04-25 08:47 35.17905 -103.69351 35808 ft 405 kts 268°
2026-04-25 08:48 35.17699 -103.76231 35788 ft 405 kts 268°
2026-04-25 08:48 35.17487 -103.83115 35760 ft 405 kts 268°
2026-04-25 08:49 35.17269 -103.89987 35729 ft 405 kts 268°
2026-04-25 08:49 35.17046 -103.96872 35712 ft 405 kts 268°
2026-04-25 08:50 35.16826 -104.03546 35688 ft 405 kts 268°
2026-04-25 08:50 35.16595 -104.10424 35693 ft 405 kts 268°
2026-04-25 08:51 35.16361 -104.17296 35692 ft 405 kts 268°
2026-04-25 08:51 35.16124 -104.24172 35678 ft 405 kts 268°
2026-04-25 08:52 35.15882 -104.31045 35686 ft 405 kts 268°
2026-04-25 08:52 35.15636 -104.37917 35727 ft 405 kts 268°
2026-04-25 08:53 35.15388 -104.44748 35750 ft 405 kts 268°
2026-04-25 08:53 35.15134 -104.51628 35771 ft 405 kts 268°
2026-04-25 08:54 35.14876 -104.58508 35777 ft 405 kts 268°
2026-04-25 08:54 35.14614 -104.65384 35793 ft 405 kts 268°
2026-04-25 08:55 35.14349 -104.72261 35784 ft 405 kts 268°
2026-04-25 08:55 35.14080 -104.79136 35771 ft 405 kts 268°
2026-04-25 08:56 35.13806 -104.86009 35748 ft 405 kts 268°
2026-04-25 08:56 35.13529 -104.92883 35718 ft 405 kts 268°
2026-04-25 08:57 35.13249 -104.99747 35706 ft 404 kts 268°
2026-04-25 08:57 35.12974 -105.06375 35700 ft 404 kts 268°
2026-04-25 08:58 35.12686 -105.13225 35713 ft 404 kts 268°
2026-04-25 08:58 35.12395 -105.20068 35716 ft 403 kts 268°
2026-04-25 08:59 35.12101 -105.26903 35739 ft 403 kts 268°
2026-04-25 08:59 35.11802 -105.33736 35746 ft 402 kts 268°
2026-04-25 09:00 35.11501 -105.40542 35750 ft 401 kts 268°
2026-04-25 09:00 35.11196 -105.47327 35755 ft 399 kts 268°
2026-04-25 09:01 35.10890 -105.54092 35784 ft 399 kts 268°
2026-04-25 09:01 35.10580 -105.60850 35770 ft 398 kts 268°
2026-04-25 09:02 35.10266 -105.67596 35808 ft 398 kts 268°
2026-04-25 09:02 35.09949 -105.74326 35782 ft 396 kts 268°
2026-04-25 09:03 35.09633 -105.80974 35783 ft 394 kts 268°
2026-04-25 09:03 35.09312 -105.87639 35790 ft 392 kts 268°
2026-04-25 09:04 35.08989 -105.94284 35788 ft 392 kts 268°
2026-04-25 09:04 35.08672 -106.00716 35784 ft 391 kts 268°
2026-04-25 09:05 35.08342 -106.07343 35788 ft 391 kts 267°
2026-04-25 09:05 35.08009 -106.13970 35798 ft 391 kts 267°
2026-04-25 09:06 35.07672 -106.20587 35804 ft 391 kts 267°
2026-04-25 09:06 35.07331 -106.27226 35833 ft 392 kts 267°
2026-04-25 09:07 35.06985 -106.33872 35872 ft 393 kts 267°
2026-04-25 09:07 35.06636 -106.40532 35912 ft 393 kts 268°
2026-04-25 09:08 35.06283 -106.47192 35943 ft 393 kts 267°
2026-04-25 09:08 35.05926 -106.53836 35962 ft 392 kts 267°
2026-04-25 09:09 35.05568 -106.60465 35963 ft 391 kts 267°
2026-04-25 09:09 35.05206 -106.67078 35961 ft 390 kts 267°
2026-04-25 09:10 35.04842 -106.73677 35949 ft 389 kts 268°
2026-04-25 09:10 35.04475 -106.80260 35960 ft 389 kts 268°
2026-04-25 09:11 35.04137 -106.90152 35767 ft 390 kts 269°
2026-04-25 09:11 35.04005 -106.96782 35775 ft 391 kts 269°
2026-04-25 09:12 35.03859 -107.03226 35762 ft 393 kts 269°
2026-04-25 09:12 35.03694 -107.09851 35740 ft 394 kts 269°
2026-04-25 09:13 35.03519 -107.16538 35749 ft 395 kts 269°
2026-04-25 09:13 35.03339 -107.23239 35755 ft 395 kts 269°
2026-04-25 09:14 35.03155 -107.29961 35755 ft 397 kts 269°
2026-04-25 09:14 35.02966 -107.36699 35750 ft 398 kts 269°
2026-04-25 09:15 35.02773 -107.43443 35746 ft 398 kts 269°
2026-04-25 09:15 35.02577 -107.50181 35746 ft 397 kts 269°
2026-04-25 09:16 35.02377 -107.56900 35762 ft 396 kts 269°
2026-04-25 09:16 35.02175 -107.63616 35761 ft 396 kts 269°
2026-04-25 09:17 35.01865 -107.73677 35765 ft 396 kts 269°
2026-04-25 09:18 35.01653 -107.80388 35756 ft 396 kts 269°
2026-04-25 09:18 35.01437 -107.87093 35758 ft 396 kts 269°
2026-04-25 09:19 35.01218 -107.93796 35760 ft 395 kts 269°
2026-04-25 09:19 35.01001 -108.00337 35761 ft 395 kts 269°
2026-04-25 09:20 35.00777 -108.06958 35756 ft 396 kts 269°
2026-04-25 09:20 35.00547 -108.13671 35757 ft 396 kts 269°
2026-04-25 09:21 35.00313 -108.20384 35752 ft 396 kts 269°
2026-04-25 09:21 35.00076 -108.27083 35748 ft 396 kts 269°
2026-04-25 09:22 34.99835 -108.33783 35751 ft 396 kts 269°
2026-04-25 09:22 34.99590 -108.40495 35750 ft 396 kts 269°
2026-04-25 09:23 34.99341 -108.47202 35756 ft 396 kts 269°
2026-04-25 09:23 34.99089 -108.53898 35743 ft 395 kts 269°
2026-04-25 09:24 34.98835 -108.60576 35751 ft 394 kts 268°
2026-04-25 09:24 34.98576 -108.67244 35742 ft 393 kts 268°
2026-04-25 09:25 34.98314 -108.73899 35751 ft 393 kts 268°
2026-04-25 09:25 34.98050 -108.80551 35745 ft 393 kts 268°
2026-04-25 09:26 34.97782 -108.87200 35751 ft 392 kts 268°
2026-04-25 09:26 34.97510 -108.93847 35750 ft 393 kts 268°
2026-04-25 09:27 34.97241 -109.00337 35746 ft 393 kts 268°
2026-04-25 09:27 34.96964 -109.06942 35796 ft 392 kts 268°
2026-04-25 09:28 34.96684 -109.13550 35754 ft 393 kts 268°
2026-04-25 09:28 34.96332 -109.20225 35765 ft 393 kts 267°
2026-04-25 09:29 34.95878 -109.26856 35762 ft 392 kts 266°
2026-04-25 09:29 34.95421 -109.33479 35772 ft 392 kts 266°
2026-04-25 09:30 34.94971 -109.40092 35769 ft 392 kts 266°
2026-04-25 09:30 34.94523 -109.46710 35761 ft 392 kts 266°
2026-04-25 09:31 34.94077 -109.53277 35786 ft 392 kts 266°
2026-04-25 09:31 34.93623 -109.59904 35781 ft 392 kts 266°
2026-04-25 09:32 34.93240 -109.65448 35770 ft 393 kts 266°
2026-04-25 09:32 34.92778 -109.72082 35778 ft 393 kts 266°
2026-04-25 09:33 34.92313 -109.78715 35781 ft 393 kts 266°
2026-04-25 09:33 34.91844 -109.85347 35780 ft 393 kts 266°
2026-04-25 09:34 34.91371 -109.91981 35791 ft 393 kts 266°
2026-04-25 09:34 34.90895 -109.98614 35785 ft 393 kts 266°
2026-04-25 09:35 34.90430 -110.05041 35782 ft 393 kts 266°
2026-04-25 09:35 34.89947 -110.11670 35803 ft 393 kts 266°
2026-04-25 09:36 34.89464 -110.18252 35791 ft 393 kts 266°
2026-04-25 09:36 34.88974 -110.24873 35817 ft 392 kts 266°
2026-04-25 09:37 34.88482 -110.31487 35815 ft 392 kts 265°
2026-04-25 09:37 34.87985 -110.38099 35822 ft 392 kts 265°
2026-04-25 09:38 34.87487 -110.44709 35818 ft 392 kts 265°
2026-04-25 09:38 34.86983 -110.51318 35804 ft 392 kts 265°
2026-04-25 09:39 34.86476 -110.57910 35816 ft 392 kts 265°
2026-04-25 09:39 34.85963 -110.64521 35912 ft 392 kts 265°
2026-04-25 09:40 34.85187 -110.74446 35911 ft 393 kts 265°
2026-04-25 09:40 34.84665 -110.81065 35886 ft 393 kts 265°
2026-04-25 09:41 34.84139 -110.87683 35889 ft 393 kts 265°
2026-04-25 09:41 34.83610 -110.94307 35873 ft 394 kts 265°
2026-04-25 09:42 34.83092 -111.00741 35858 ft 394 kts 265°
2026-04-25 09:42 34.82554 -111.07381 35838 ft 394 kts 265°
2026-04-25 09:43 34.82014 -111.14013 35831 ft 395 kts 265°
2026-04-25 09:43 34.81468 -111.20657 35825 ft 394 kts 265°
2026-04-25 09:44 34.80919 -111.27291 35823 ft 394 kts 265°
2026-04-25 09:44 34.80368 -111.33919 35827 ft 394 kts 264°
2026-04-25 09:45 34.79813 -111.40542 35824 ft 394 kts 264°
2026-04-25 09:45 34.79254 -111.47171 35819 ft 394 kts 264°
2026-04-25 09:46 34.78691 -111.53808 35827 ft 395 kts 265°
2026-04-25 09:46 34.78122 -111.60458 35921 ft 396 kts 265°
2026-04-25 09:47 34.77549 -111.67119 35938 ft 396 kts 265°
2026-04-25 09:47 34.76974 -111.73779 35956 ft 396 kts 264°
2026-04-25 09:48 34.76393 -111.80433 35967 ft 396 kts 264°
2026-04-25 09:48 34.75811 -111.87079 35946 ft 395 kts 264°
2026-04-25 09:49 34.75226 -111.93713 35922 ft 394 kts 264°
2026-04-25 09:49 34.74648 -112.00224 35888 ft 393 kts 264°
2026-04-25 09:50 34.74068 -112.06718 35866 ft 391 kts 264°
2026-04-25 09:50 34.73493 -112.13117 35892 ft 390 kts 264°
2026-04-25 09:51 34.72896 -112.19720 35895 ft 390 kts 264°
2026-04-25 09:51 34.72301 -112.26262 35927 ft 390 kts 264°
2026-04-25 09:52 34.71701 -112.32816 35954 ft 390 kts 264°
2026-04-25 09:52 34.71099 -112.39366 35974 ft 390 kts 264°
2026-04-25 09:53 34.70494 -112.45913 35945 ft 390 kts 263°
2026-04-25 09:53 34.69821 -112.52451 35808 ft 390 kts 262°
2026-04-25 09:54 34.69043 -112.58932 35789 ft 390 kts 262°
2026-04-25 09:54 34.68254 -112.65465 35798 ft 391 kts 262°
2026-04-25 09:55 34.67472 -112.72009 35792 ft 392 kts 262°
2026-04-25 09:55 34.66690 -112.78556 35772 ft 392 kts 262°
2026-04-25 09:56 34.65907 -112.85110 35776 ft 392 kts 262°
2026-04-25 09:56 34.65118 -112.91671 35779 ft 393 kts 262°
2026-04-25 09:57 34.64325 -112.98239 35766 ft 393 kts 262°
2026-04-25 09:57 34.63552 -113.04616 35775 ft 394 kts 262°
2026-04-25 09:58 34.62750 -113.11195 35759 ft 394 kts 261°
2026-04-25 09:58 34.61948 -113.17770 35759 ft 394 kts 261°
2026-04-25 09:59 34.61140 -113.24339 35752 ft 393 kts 261°
2026-04-25 09:59 34.60328 -113.30903 35755 ft 393 kts 261°
2026-04-25 10:00 34.59517 -113.37444 35748 ft 392 kts 261°
2026-04-25 10:00 34.58702 -113.43987 35734 ft 392 kts 261°
2026-04-25 10:01 34.57884 -113.50520 35739 ft 392 kts 261°
2026-04-25 10:01 34.57065 -113.57052 35745 ft 392 kts 261°
2026-04-25 10:02 34.56223 -113.63582 35737 ft 392 kts 259°
2026-04-25 10:02 34.54994 -113.70016 35741 ft 392 kts 257°
2026-04-25 10:03 34.53688 -113.76431 35731 ft 392 kts 257°
2026-04-25 10:03 34.52385 -113.82844 35740 ft 392 kts 257°
2026-04-25 10:04 34.51079 -113.89269 35729 ft 393 kts 257°
2026-04-25 10:04 34.49779 -113.95665 35730 ft 394 kts 257°
2026-04-25 10:05 34.48505 -114.01916 35723 ft 394 kts 257°
2026-04-25 10:05 34.47189 -114.08357 35721 ft 394 kts 256°
2026-04-25 10:06 34.45871 -114.14799 35746 ft 394 kts 256°
2026-04-25 10:06 34.44546 -114.21246 35711 ft 395 kts 256°
2026-04-25 10:07 34.43207 -114.27744 35707 ft 395 kts 256°
2026-04-25 10:07 34.41876 -114.34184 35712 ft 395 kts 256°
2026-04-25 10:08 34.40539 -114.40633 35716 ft 395 kts 256°
2026-04-25 10:08 34.39198 -114.47084 35717 ft 395 kts 256°
2026-04-25 10:09 34.37854 -114.53535 35724 ft 395 kts 256°
2026-04-25 10:09 34.36515 -114.59941 35725 ft 395 kts 256°
2026-04-25 10:10 34.35163 -114.66390 35739 ft 395 kts 256°
2026-04-25 10:10 34.33808 -114.72837 35733 ft 395 kts 256°
2026-04-25 10:11 34.32452 -114.79276 35741 ft 394 kts 256°
2026-04-25 10:11 34.31093 -114.85701 35751 ft 394 kts 256°
2026-04-25 10:12 34.29730 -114.92129 35746 ft 395 kts 256°
2026-04-25 10:13 34.27714 -115.01609 35749 ft 396 kts 256°
2026-04-25 10:13 34.26338 -115.08054 35748 ft 396 kts 256°
2026-04-25 10:14 34.24957 -115.14509 35766 ft 397 kts 256°
2026-04-25 10:14 34.23573 -115.20961 35764 ft 397 kts 256°
2026-04-25 10:15 34.22186 -115.27409 35767 ft 397 kts 256°
2026-04-25 10:15 34.20793 -115.33867 35758 ft 397 kts 255°
2026-04-25 10:16 34.19377 -115.40315 35769 ft 397 kts 255°
2026-04-25 10:16 34.18188 -115.45667 35782 ft 396 kts 255°
2026-04-25 10:17 34.16762 -115.52081 35787 ft 396 kts 255°
2026-04-25 10:17 34.15333 -115.58504 35788 ft 397 kts 255°
2026-04-25 10:18 34.13900 -115.64931 35798 ft 398 kts 255°
2026-04-25 10:18 34.12446 -115.71440 35795 ft 398 kts 255°
2026-04-25 10:19 34.11032 -115.77893 35813 ft 398 kts 257°
2026-04-25 10:19 34.10019 -115.84469 35818 ft 399 kts 259°
2026-04-25 10:20 34.09103 -115.91027 35839 ft 399 kts 259°
2026-04-25 10:20 34.08156 -115.97611 35852 ft 397 kts 258°
2026-04-25 10:21 34.07219 -116.03969 35863 ft 397 kts 258°
2026-04-25 10:21 34.06244 -116.10515 35868 ft 395 kts 258°
2026-04-25 10:22 34.05284 -116.16938 35832 ft 379 kts 258°
2026-04-25 10:22 34.04819 -116.20045 35248 ft 377 kts 258°
2026-04-25 10:22 34.04351 -116.23155 34591 ft 376 kts 258°
2026-04-25 10:22 34.03881 -116.26272 33749 ft 381 kts 258°
2026-04-25 10:23 34.03399 -116.29462 32786 ft 392 kts 258°
2026-04-25 10:23 34.02900 -116.32759 31855 ft 410 kts 258°
2026-04-25 10:23 34.02377 -116.36216 30916 ft 425 kts 258°
2026-04-25 10:23 34.01847 -116.39722 30114 ft 426 kts 259°
2026-04-25 10:24 34.01314 -116.43237 29233 ft 424 kts 259°
2026-04-25 10:24 34.00785 -116.46717 28411 ft 421 kts 259°
2026-04-25 10:24 34.00327 -116.50196 27676 ft 418 kts 262°
2026-04-25 10:24 34.00030 -116.53659 26939 ft 415 kts 263°
2026-04-25 10:25 33.99792 -116.57104 26212 ft 412 kts 264°
2026-04-25 10:25 33.99555 -116.60527 25522 ft 409 kts 263°
2026-04-25 10:25 33.99305 -116.63925 24856 ft 407 kts 263°
2026-04-25 10:25 33.99040 -116.67321 24176 ft 405 kts 263°
2026-04-25 10:26 33.98769 -116.70689 23494 ft 404 kts 262°
2026-04-25 10:26 33.98497 -116.74020 22733 ft 403 kts 262°
2026-04-25 10:26 33.98223 -116.77369 22066 ft 401 kts 262°
2026-04-25 10:26 33.97950 -116.80700 21388 ft 398 kts 263°
2026-04-25 10:27 33.97676 -116.84041 20739 ft 395 kts 263°
2026-04-25 10:27 33.97410 -116.87290 20146 ft 393 kts 263°
2026-04-25 10:27 33.97142 -116.90548 19526 ft 390 kts 263°
2026-04-25 10:27 33.96874 -116.93799 18910 ft 388 kts 263°
2026-04-25 10:28 33.96607 -116.97020 18278 ft 387 kts 263°
2026-04-25 10:28 33.96345 -117.00171 17627 ft 385 kts 263°
2026-04-25 10:28 33.96092 -117.03220 17307 ft 375 kts 263°
2026-04-25 10:28 33.95836 -117.06291 17128 ft 362 kts 263°
2026-04-25 10:29 33.95588 -117.09245 16966 ft 349 kts 263°
2026-04-25 10:29 33.95348 -117.12108 16739 ft 339 kts 263°
2026-04-25 10:29 33.95113 -117.14893 16418 ft 331 kts 263°
2026-04-25 10:29 33.94881 -117.17632 16090 ft 324 kts 263°
2026-04-25 10:30 33.94654 -117.20303 15827 ft 319 kts 263°
2026-04-25 10:30 33.94428 -117.22956 15523 ft 316 kts 263°
2026-04-25 10:30 33.94205 -117.25574 15214 ft 314 kts 263°
2026-04-25 10:30 33.93983 -117.28177 14907 ft 312 kts 263°
2026-04-25 10:31 33.93761 -117.30770 14606 ft 310 kts 263°
2026-04-25 10:31 33.93540 -117.33338 14302 ft 308 kts 263°
2026-04-25 10:31 33.93331 -117.35898 14006 ft 304 kts 266°
2026-04-25 10:31 33.93544 -117.38429 13700 ft 308 kts 282°
2026-04-25 10:32 33.94312 -117.40854 13373 ft 313 kts 290°
2026-04-25 10:32 33.95207 -117.43256 13031 ft 315 kts 290°
2026-04-25 10:32 33.96089 -117.45662 12722 ft 314 kts 290°
2026-04-25 10:32 33.96960 -117.48073 12397 ft 310 kts 290°
2026-04-25 10:33 33.97648 -117.50463 12096 ft 300 kts 281°
2026-04-25 10:33 33.98083 -117.52901 11815 ft 296 kts 279°
2026-04-25 10:33 33.98465 -117.55335 11544 ft 295 kts 279°
2026-04-25 10:33 33.98855 -117.57764 11271 ft 295 kts 279°
2026-04-25 10:34 33.99265 -117.60192 10985 ft 296 kts 280°
2026-04-25 10:34 33.99686 -117.62609 10719 ft 292 kts 280°
2026-04-25 10:34 34.00104 -117.64986 10425 ft 287 kts 281°
2026-04-25 10:34 34.00513 -117.67312 10137 ft 281 kts 279°
2026-04-25 10:35 34.00631 -117.69595 9803 ft 271 kts 263°
2026-04-25 10:35 34.00379 -117.71822 9484 ft 265 kts 262°
2026-04-25 10:35 34.00148 -117.74010 9142 ft 261 kts 263°
2026-04-25 10:35 33.99929 -117.76161 8826 ft 256 kts 263°
2026-04-25 10:36 33.99719 -117.78268 8570 ft 252 kts 263°
2026-04-25 10:36 33.99511 -117.80360 8321 ft 252 kts 263°
2026-04-25 10:36 33.99304 -117.82456 8066 ft 252 kts 263°
2026-04-25 10:36 33.99101 -117.84551 7814 ft 252 kts 264°
2026-04-25 10:37 33.98897 -117.86652 7562 ft 253 kts 264°
2026-04-25 10:37 33.98692 -117.88760 7289 ft 254 kts 264°
2026-04-25 10:37 33.98485 -117.90873 7046 ft 254 kts 264°
2026-04-25 10:37 33.98276 -117.92992 6783 ft 255 kts 264°
2026-04-25 10:38 33.98067 -117.95117 6531 ft 256 kts 264°
2026-04-25 10:38 33.97857 -117.97244 6272 ft 257 kts 264°
2026-04-25 10:38 33.97647 -117.99376 5979 ft 254 kts 264°
2026-04-25 10:38 33.97446 -118.01405 5727 ft 250 kts 263°
2026-04-25 10:39 33.97242 -118.03461 5467 ft 252 kts 263°
2026-04-25 10:39 33.97030 -118.05593 5201 ft 253 kts 263°
2026-04-25 10:39 33.96820 -118.07706 4924 ft 255 kts 263°
2026-04-25 10:39 33.96607 -118.09845 4579 ft 258 kts 263°
2026-04-25 10:40 33.96396 -118.11973 4245 ft 255 kts 263°
2026-04-25 10:40 33.96187 -118.14066 4028 ft 247 kts 262°
2026-04-25 10:40 33.95983 -118.16109 3674 ft 245 kts 262°
2026-04-25 10:40 33.95846 -118.17478 3468 ft 242 kts 262°
2026-04-25 10:41 33.95585 -118.20122 3029 ft 235 kts 262°
2026-04-25 10:41 33.95400 -118.21950 2822 ft 215 kts 261°
2026-04-25 10:41 33.95224 -118.23672 2571 ft 201 kts 261°
2026-04-25 10:41 33.95057 -118.25308 2295 ft 190 kts 261°
2026-04-25 10:42 33.94902 -118.26831 2037 ft 175 kts 261°
2026-04-25 10:42 33.94765 -118.28186 1803 ft 157 kts 261°
2026-04-25 10:42 33.94633 -118.29472 1574 ft 146 kts 261°
2026-04-25 10:42 33.94509 -118.30692 1401 ft 148 kts 261°
2026-04-25 10:43 33.94383 -118.31921 1187 ft 146 kts 261°
2026-04-25 10:43 33.94258 -118.33132 974 ft 146 kts 261°
2026-04-25 10:43 33.94134 -118.34331 793 ft 143 kts 262°
2026-04-25 10:43 33.94013 -118.35510 622 ft 144 kts 262°
2026-04-25 10:44 33.93893 -118.36723 406 ft 142 kts 263°
2026-04-25 10:44 33.93779 -118.37894 223 ft 143 kts 262°
2026-04-25 10:44 33.93654 -118.39071 127 ft 134 kts 265°
2026-04-25 10:44 33.93564 -118.39940 127 ft 57 kts 260°
2026-04-25 10:45 33.93476 -118.40194 125 ft 13 kts 202°
2026-04-25 10:45 33.93426 -118.40148 126 ft 10 kts 99°
2026-04-25 10:45 33.93431 -118.40062 129 ft 11 kts 83°
2026-04-25 10:45 33.93439 -118.39974 127 ft 11 kts 83°
2026-04-25 10:46 33.93447 -118.39891 129 ft 11 kts 83°
2026-04-25 10:46 33.93456 -118.39802 129 ft 11 kts 83°
2026-04-25 10:46 33.93466 -118.39708 125 ft 12 kts 83°
2026-04-25 10:46 33.93476 -118.39610 127 ft 12 kts 83°
2026-04-25 10:47 33.93487 -118.39508 130 ft 13 kts 83°
2026-04-25 10:47 33.93498 -118.39404 130 ft 12 kts 83°
2026-04-25 10:47 33.93489 -118.39334 126 ft 4 kts 131°
2026-04-25 10:47 33.93459 -118.39327 126 ft 5 kts 191°
2026-04-25 10:48 33.93423 -118.39334 127 ft 6 kts 183°
2026-04-25 10:48 33.93382 -118.39337 126 ft 6 kts 180°
2026-04-25 10:48 33.93341 -118.39334 126 ft 0 kts 174°